Volver al catálogo

ONEWEB-0215

ActivoComunicacionesPO
NORAD 48800·PAYLOAD·🇬🇧 United Kingdom

Lanzado May 28, 2021 desde Vostochny Cosmodrome

Loading…

Próximos Pases (próximas 24 horas)

TLE

ActualizadoSource: CelesTrak SupGP

Época: Sep 15, 2026, 00:15 UTC

1 48800C 21045AK  26258.01055972 -.00002687  00000+0 -71468-2 0  2584
2 48800  87.8997 241.2775 0002200  67.2264 322.5605 13.15555791    15

Sigue ONEWEB-0215 en tiempo real con AllMySat

Download on the App Store